• In Deutschland
  • Länderverzeichnis
  • Für 7 Tage
  • Wassertemperatur
  • Satellitenkarten
  • Wetterkarte
  • Widgets
  • user-avatar
    Anmelden

    Stündliche Wetter Townsville

    Heute, 18 Oktober, Mittwoch

    Zeit Temperatur Niederschläge Wind Luftdruck Luftfeuchtigkeit
    00:00 +21°C° 0,6 mm 3 m/S 752 mmHg 96%
    01:00 +21°C° 0,6 mm 3 m/S 751 mmHg 96%
    02:00 +21°C° 0,2 mm 3 m/S 751 mmHg 96%
    03:00 +21°C° 0,2 mm 3 m/S 751 mmHg 96%
    04:00 +21°C° 0 mm 4 m/S 751 mmHg 97%
    05:00 +21°C° 0,1 mm 4 m/S 751 mmHg 96%
    06:00 +22°C° 0,1 mm 4 m/S 751 mmHg 94%
    07:00 +22°C° 0,1 mm 3 m/S 751 mmHg 93%
    08:00 +24°C° 1,3 mm 3 m/S 752 mmHg 88%
    09:00 +25°C° 1,3 mm 3 m/S 752 mmHg 84%
    10:00 +26°C° 0 mm 6 m/S 753 mmHg 84%
    11:00 +26°C° 0,7 mm 6 m/S 752 mmHg 84%
    12:00 +26°C° 0,7 mm 5 m/S 752 mmHg 84%
    13:00 +26°C° 0,7 mm 5 m/S 751 mmHg 84%
    14:00 +26°C° 0,9 mm 5 m/S 751 mmHg 86%
    15:00 +24°C° 0,9 mm 6 m/S 751 mmHg 87%
    16:00 +24°C° 0 mm 7 m/S 751 mmHg 89%
    17:00 +24°C° 1,1 mm 7 m/S 752 mmHg 90%
    18:00 +23°C° 1,1 mm 7 m/S 752 mmHg 91%
    19:00 +23°C° 1,1 mm 7 m/S 753 mmHg 92%
    20:00 +23°C° 1,2 mm 6 m/S 753 mmHg 92%
    21:00 +23°C° 1,2 mm 6 m/S 753 mmHg 92%
    22:00 +23°C° 1,2 mm 6 m/S 754 mmHg 92%
    23:00 +23°C° 1,6 mm 5 m/S 753 mmHg 93%

    Morgen, 19 Oktober, Donnerstag

    Zeit Temperatur Niederschläge Wind Luftdruck Luftfeuchtigkeit
    00:00 +23°C° 1,6 mm 5 m/S 753 mmHg 94%
    01:00 +23°C° 1,6 mm 5 m/S 753 mmHg 94%
    02:00 +23°C° 1,4 mm 5 m/S 753 mmHg 95%
    03:00 +23°C° 1,4 mm 5 m/S 753 mmHg 95%
    04:00 +23°C° 1,4 mm 6 m/S 753 mmHg 95%
    05:00 +24°C° 2 mm 7 m/S 753 mmHg 94%
    06:00 +24°C° 2 mm 7 m/S 753 mmHg 93%
    07:00 +24°C° 2 mm 8 m/S 754 mmHg 92%
    08:00 +24°C° 5,7 mm 8 m/S 754 mmHg 90%
    09:00 +26°C° 5,7 mm 9 m/S 754 mmHg 88%
    10:00 +26°C° 5,7 mm 9 m/S 754 mmHg 86%
    11:00 +26°C° 2,3 mm 8 m/S 754 mmHg 87%
    12:00 +26°C° 2,3 mm 8 m/S 754 mmHg 87%
    13:00 +26°C° 2,3 mm 8 m/S 754 mmHg 88%
    14:00 +27°C° 0,9 mm 8 m/S 753 mmHg 86%
    15:00 +27°C° 0,9 mm 8 m/S 753 mmHg 85%
    16:00 +27°C° 0,9 mm 8 m/S 753 mmHg 84%
    17:00 +27°C° 0,7 mm 7 m/S 753 mmHg 87%
    18:00 +26°C° 0,7 mm 7 m/S 754 mmHg 89%
    19:00 +26°C° 0,7 mm 7 m/S 754 mmHg 92%
    20:00 +24°C° 0,8 mm 7 m/S 755 mmHg 92%
    21:00 +24°C° 0,8 mm 7 m/S 755 mmHg 92%
    22:00 +24°C° 0,8 mm 7 m/S 756 mmHg 92%
    23:00 +24°C° 0,5 mm 7 m/S 755 mmHg 92%

    übermorgen, 20 Oktober, Freitag

    Zeit Temperatur Niederschläge Wind Luftdruck Luftfeuchtigkeit
    00:00 +24°C° 0,5 mm 7 m/S 755 mmHg 93%
    01:00 +24°C° 0,5 mm 6 m/S 754 mmHg 93%
    02:00 +24°C° 0,6 mm 6 m/S 754 mmHg 93%
    03:00 +24°C° 0,6 mm 6 m/S 754 mmHg 93%
    04:00 +24°C° 0,6 mm 6 m/S 754 mmHg 93%
    05:00 +24°C° 0,3 mm 6 m/S 754 mmHg 92%
    06:00 +24°C° 0,3 mm 6 m/S 755 mmHg 91%
    07:00 +24°C° 0,3 mm 6 m/S 755 mmHg 91%
    08:00 +26°C° 0,1 mm 6 m/S 755 mmHg 85%
    09:00 +27°C° 0,1 mm 6 m/S 756 mmHg 79%
    10:00 +29°C° 0,1 mm 6 m/S 756 mmHg 74%
    11:00 +29°C° 0 mm 6 m/S 755 mmHg 71%
    12:00 +30°C° 0 mm 6 m/S 755 mmHg 67%
    13:00 +30°C° 0 mm 6 m/S 754 mmHg 64%
    14:00 +30°C° 0 mm 6 m/S 754 mmHg 64%
    15:00 +30°C° 0 mm 5 m/S 753 mmHg 64%
    16:00 +30°C° 0 mm 5 m/S 753 mmHg 64%
    17:00 +29°C° 0 mm 5 m/S 753 mmHg 70%
    18:00 +27°C° 0 mm 5 m/S 753 mmHg 76%
    19:00 +26°C° 0 mm 5 m/S 753 mmHg 81%
    20:00 +26°C° 0 mm 5 m/S 754 mmHg 83%
    21:00 +25°C° 0 mm 4 m/S 754 mmHg 85%
    22:00 +25°C° 0 mm 4 m/S 755 mmHg 87%
    23:00 +25°C° 0,1 mm 4 m/S 754 mmHg 88%

    21 Oktober, Samstag

    Zeit Temperatur Niederschläge Wind Luftdruck Luftfeuchtigkeit
    00:00 +25°C° 0,1 mm 4 m/S 754 mmHg 89%
    01:00 +23°C° 0,1 mm 4 m/S 753 mmHg 90%
    02:00 +24°C° 0 mm 3 m/S 753 mmHg 91%
    03:00 +24°C° 0 mm 3 m/S 753 mmHg 92%
    04:00 +24°C° 0 mm 3 m/S 752 mmHg 93%
    05:00 +24°C° 0 mm 3 m/S 753 mmHg 90%
    06:00 +25°C° 0 mm 3 m/S 753 mmHg 87%
    07:00 +25°C° 0 mm 3 m/S 753 mmHg 85%
    08:00 +27°C° 0 mm 3 m/S 753 mmHg 79%
    09:00 +28°C° 0 mm 3 m/S 753 mmHg 73%
    10:00 +29°C° 0 mm 3 m/S 753 mmHg 67%
    11:00 +29°C° 0 mm 3 m/S 753 mmHg 67%
    12:00 +29°C° 0 mm 3 m/S 752 mmHg 66%
    13:00 +30°C° 0 mm 3 m/S 752 mmHg 65%
    14:00 +29°C° 0,4 mm 3 m/S 751 mmHg 68%
    15:00 +29°C° 0,4 mm 3 m/S 751 mmHg 71%
    16:00 +28°C° 0,4 mm 3 m/S 750 mmHg 74%
    17:00 +27°C° 0,8 mm 2 m/S 751 mmHg 79%
    18:00 +26°C° 0,8 mm 2 m/S 751 mmHg 85%
    19:00 +25°C° 0,8 mm 2 m/S 752 mmHg 90%
    20:00 +25°C° 1,6 mm 1 m/S 752 mmHg 91%
    21:00 +25°C° 1,6 mm 1 m/S 752 mmHg 92%
    22:00 +25°C° 1,6 mm 1 m/S 752 mmHg 93%
    23:00 +25°C° 0,9 mm 1 m/S 752 mmHg 93%

    22 Oktober, Sonntag

    Zeit Temperatur Niederschläge Wind Luftdruck Luftfeuchtigkeit
    00:00 +24°C° 0,9 mm 1 m/S 751 mmHg 94%
    01:00 +24°C° 0,9 mm 1 m/S 751 mmHg 94%
    02:00 +24°C° 0,9 mm 1 m/S 750 mmHg 94%
    03:00 +24°C° 0,9 mm 1 m/S 750 mmHg 93%
    04:00 +24°C° 0,9 mm 1 m/S 750 mmHg 92%
    05:00 +25°C° 0,2 mm 1 m/S 750 mmHg 89%
    06:00 +25°C° 0,2 mm 1 m/S 751 mmHg 87%
    07:00 +26°C° 0,2 mm 1 m/S 751 mmHg 84%
    08:00 +28°C° 0 mm 1 m/S 751 mmHg 74%
    09:00 +29°C° 0 mm 1 m/S 751 mmHg 64%
    10:00 +31°C° 0 mm 1 m/S 751 mmHg 54%
    11:00 +31°C° 0,1 mm 2 m/S 751 mmHg 54%
    12:00 +31°C° 0,1 mm 2 m/S 750 mmHg 53%
    13:00 +31°C° 0,1 mm 2 m/S 749 mmHg 53%
    14:00 +33°C° 0,1 mm 3 m/S 749 mmHg 51%
    15:00 +33°C° 0,1 mm 3 m/S 749 mmHg 48%
    16:00 +34°C° 0,1 mm 3 m/S 748 mmHg 46%
    17:00 +31°C° 0,1 mm 3 m/S 749 mmHg 55%
    18:00 +29°C° 0,1 mm 3 m/S 749 mmHg 65%
    19:00 +27°C° 0,1 mm 3 m/S 750 mmHg 74%
    20:00 +26°C° 0,1 mm 3 m/S 750 mmHg 79%
    21:00 +26°C° 0,1 mm 3 m/S 751 mmHg 84%
    22:00 +25°C° 0,1 mm 2 m/S 751 mmHg 90%
    23:00 +25°C° 0,1 mm 2 m/S 751 mmHg 89%

    23 Oktober, Montag

    Zeit Temperatur Niederschläge Wind Luftdruck Luftfeuchtigkeit
    00:00 +25°C° 0,1 mm 2 m/S 751 mmHg 89%
    01:00 +24°C° 0,1 mm 2 m/S 750 mmHg 89%
    02:00 +24°C° 0 mm 2 m/S 750 mmHg 84%
    03:00 +24°C° 0 mm 2 m/S 750 mmHg 79%
    04:00 +24°C° 0 mm 2 m/S 750 mmHg 73%
    05:00 +24°C° 0 mm 2 m/S 751 mmHg 67%
    06:00 +25°C° 0 mm 2 m/S 752 mmHg 61%
    07:00 +25°C° 0 mm 2 m/S 752 mmHg 55%
    08:00 +28°C° 0 mm 1 m/S 752 mmHg 49%
    09:00 +30°C° 0 mm 1 m/S 752 mmHg 42%
    10:00 +32°C° 0 mm 1 m/S 753 mmHg 35%
    11:00 +34°C° 0 mm 2 m/S 752 mmHg 34%
    12:00 +35°C° 0 mm 2 m/S 752 mmHg 32%
    13:00 +36°C° 0 mm 3 m/S 751 mmHg 31%
    14:00 +35°C° 0,2 mm 4 m/S 751 mmHg 38%
    15:00 +34°C° 0,2 mm 4 m/S 751 mmHg 45%
    16:00 +32°C° 0,2 mm 5 m/S 751 mmHg 52%
    17:00 +29°C° 0,1 mm 5 m/S 752 mmHg 62%
    18:00 +28°C° 0,1 mm 5 m/S 752 mmHg 73%
    19:00 +26°C° 0,1 mm 5 m/S 753 mmHg 83%
    20:00 +26°C° 0,2 mm 5 m/S 753 mmHg 84%
    21:00 +25°C° 0,2 mm 4 m/S 754 mmHg 86%
    22:00 +25°C° 0,2 mm 4 m/S 754 mmHg 87%
    23:00 +25°C° 0 mm 4 m/S 754 mmHg 88%
    Mehr zeigen